Newark, NJ

6:04 PM EDT on August 18, 2019 (GMT -0400)
Newark International

Weather History for KEWR - May, 2019

Change the Weather History Date:

Sunday, May 19, 2019

  Actual Average Record
Temperature  
Mean Temperature 72 °F 64 °F  
Max Temperature 84 °F 73 °F 98 °F (1962)
Min Temperature 59 °F 54 °F 39 °F (2002)
Degree Days  
Heating Degree Days 0 4  
Month to date heating degree days 104 105  
Since 1 July heating degree days 4698 4825  
Cooling Degree Days 6 2  
Month to date cooling degree days 15 25  
Year to date cooling degree days 30 37  
Growing Degree Days 22 (Base 50)    
Moisture  
Dew Point 60 °F    
Average Humidity 71    
Maximum Humidity 90    
Minimum Humidity 57    
Precipitation  
Precipitation 0.06 in 0.13 in 2.36 in (1966)
Month to date precipitation 4.73 2.39  
Year to date precipitation 20.38 17.19  
Snow  
Snow 0.00 in 0.00 in 0.00 in (2002)
Month to date snowfall 0.0 0.0  
Since 1 July snowfall 22.0 28.5  
Snow Depth 0.00 in    
Sea Level Pressure  
Sea Level Pressure 30.00 in    
Wind  
Wind Speed 7 mph ()    
Max Wind Speed 21 mph    
Max Gust Speed 26 mph    
Visibility 9.9 miles    
Events Rain , Thunderstorm    
T = Trace of Precipitation, MM = Missing Value Source: Averaged Metar Reports

Daily Weather History Graph

Daily Weather History Graph

Search for Another Location

Airport or City:

Astronomy

May. 19, 2019 Rise Set
Actual Time 5:36 AM EDT 8:10 PM EDT
Civil Twilight 5:04 AM EDT 8:42 PM EDT
Nautical Twilight 4:25 AM EDT 9:21 PM EDT
Astronomical Twilight 3:41 AM EDT 10:05 PM EDT
Moon 9:08 PM EDT (5/19) 6:20 AM EDT (5/19)
Length of Visible Light 15h 37m
Length of Day
14h 34m
Full, 99% of the Moon is Illuminated
May 19
Full
May 26
Last Quarter
Jun 3
New
Jun 10
First Quarter
Jun 17
Full

Hourly Weather History & Observations

Time (EDT) Temp. Heat Index Dew Point Humidity Pressure Visibility Wind Dir Wind Speed Gust Speed Precip Events Conditions
12:51 AM 61.0 °F - 46.9 °F 60% 30.07 in 10.0 mi SSE 5.8 mph - N/A   Scattered Clouds
1:51 AM 61.0 °F - 50.0 °F 67% 30.07 in 10.0 mi South 9.2 mph - N/A   Mostly Cloudy
2:51 AM 60.1 °F - 51.1 °F 72% 30.07 in 10.0 mi SSE 5.8 mph - N/A   Mostly Cloudy
3:51 AM 60.1 °F - 51.1 °F 72% 30.08 in 10.0 mi South 4.6 mph - N/A   Mostly Cloudy
4:51 AM 59.0 °F - 52.0 °F 78% 30.07 in 10.0 mi SSE 5.8 mph - N/A   Mostly Cloudy
5:51 AM 60.1 °F - 53.1 °F 78% 30.08 in 10.0 mi South 6.9 mph - N/A   Overcast
6:51 AM 61.0 °F - 54.0 °F 78% 30.09 in 10.0 mi South 5.8 mph - N/A   Mostly Cloudy
7:51 AM 63.0 °F - 55.0 °F 75% 30.08 in 10.0 mi South 12.7 mph - N/A   Mostly Cloudy
8:51 AM 63.0 °F - 55.9 °F 78% 30.08 in 10.0 mi South 8.1 mph - 0.00 in Rain Light Rain
9:51 AM 66.9 °F - 59.0 °F 76% 30.07 in 10.0 mi SSE 4.6 mph - 0.00 in   Mostly Cloudy
10:51 AM 71.1 °F - 59.0 °F 66% 30.06 in 10.0 mi Variable 5.8 mph - N/A   Mostly Cloudy
11:51 AM 73.0 °F - 57.0 °F 57% 30.04 in 10.0 mi Variable 6.9 mph - N/A   Scattered Clouds
12:51 PM 73.0 °F - 59.0 °F 61% 30.03 in 10.0 mi East 9.2 mph - N/A   Scattered Clouds
1:51 PM 75.0 °F - 61.0 °F 62% 30.01 in 10.0 mi East 9.2 mph - N/A   Scattered Clouds
2:51 PM 77.0 °F - 62.1 °F 60% 29.98 in 10.0 mi East 9.2 mph - N/A   Scattered Clouds
3:51 PM 80.1 °F 81.7 °F 64.0 °F 58% 29.94 in 10.0 mi ESE 9.2 mph - N/A   Partly Cloudy
4:51 PM 80.1 °F 82.1 °F 66.0 °F 62% 29.91 in 10.0 mi SSE 11.5 mph - N/A   Scattered Clouds
5:51 PM 82.0 °F 84.9 °F 68.0 °F 62% 29.90 in 10.0 mi South 15.0 mph - N/A   Mostly Cloudy
6:51 PM 80.1 °F 82.7 °F 68.0 °F 67% 29.89 in 10.0 mi South 13.8 mph 20.7 mph N/A   Mostly Cloudy
7:51 PM 77.0 °F - 66.9 °F 71% 29.90 in 10.0 mi South 11.5 mph - N/A   Mostly Cloudy
8:51 PM 73.9 °F - 66.9 °F 79% 29.90 in 10.0 mi South 13.8 mph - N/A   Mostly Cloudy
9:51 PM 73.9 °F - 66.9 °F 79% 29.92 in 10.0 mi South 9.2 mph - N/A   Mostly Cloudy
10:51 PM 73.0 °F - 66.0 °F 79% 29.91 in 10.0 mi South 11.5 mph - N/A   Overcast
10:58 PM 73.0 °F - 66.0 °F 79% 29.94 in 10.0 mi SSW 12.7 mph - N/A Thunderstorm Thunderstorm
11:51 PM 71.1 °F - 68.0 °F 90% 29.92 in 8.0 mi SSW 5.8 mph - 0.04 in Rain , Thunderstorm Light Thunderstorms and Rain